Time,TemperatureF,DewpointF,PressureIn,WindDirection,WindDirectionDegrees,WindSpeedMPH,WindSpeedGustMPH,Humidity,HourlyPrecipIn,Conditions,Clouds,dailyrainin,SolarRadiationWatts/m^2,SoftwareType,DateUTC
2013-03-29 00:00:00,42.9,35.5,30.30,ESE,117,0.0,0.0,75,0.00,SCT,,0.00,0.0,WeatherDisplay:10.37,2013-03-29 05:00:00,
2013-03-29 00:05:00,42.8,35.4,30.30,ESE,117,0.0,0.0,75,0.00,SCT,,0.00,0.0,WeatherDisplay:10.37,2013-03-29 05:05:00,
2013-03-29 00:10:00,42.6,35.2,30.30,ESE,117,0.0,0.0,75,0.00,SCT,,0.00,0.0,WeatherDisplay:10.37,2013-03-29 05:10:00,
2013-03-29 00:30:00,42.2,35.2,30.30,ESE,117,0.0,0.0,76,0.00,SCT,,0.00,0.0,WeatherDisplay:10.37,2013-03-29 05:30:00,
2013-03-29 00:35:00,42.1,35.1,30.30,ESE,117,0.0,0.0,76,0.00,SCT,,0.00,0.0,WeatherDisplay:10.37,2013-03-29 05:35:00,
2013-03-29 00:40:00,41.9,35.2,30.30,ESE,117,0.0,0.0,77,0.00,SCT,,0.00,0.0,WeatherDisplay:10.37,2013-03-29 05:40:00,
2013-03-29 00:45:00,41.8,35.1,30.30,ESE,117,0.0,0.0,77,0.00,SCT,,0.00,0.0,WeatherDisplay:10.37,2013-03-29 05:45:00,
2013-03-29 00:50:00,41.6,34.9,30.30,ESE,117,0.0,0.0,77,0.00,SCT,,0.00,0.0,WeatherDisplay:10.37,2013-03-29 05:50:00,
2013-03-29 00:55:00,41.5,34.8,30.30,ESE,117,0.0,0.0,77,0.00,SCT,,0.00,0.0,WeatherDisplay:10.37,2013-03-29 05:55:00,
2013-03-29 01:00:00,41.3,35.0,30.30,ESE,117,0.0,0.0,78,0.00,SCT,,0.00,0.0,WeatherDisplay:10.37,2013-03-29 06:00:00,
2013-03-29 01:05:00,41.2,34.9,30.30,ESE,117,0.0,0.0,78,0.00,SCT,,0.00,0.0,WeatherDisplay:10.37,2013-03-29 06:05:00,
2013-03-29 01:10:00,41.0,34.7,30.30,ESE,117,0.0,0.0,78,0.00,SCT,,0.00,0.0,WeatherDisplay:10.37,2013-03-29 06:10:00,
2013-03-29 01:15:00,40.8,34.8,30.30,ESE,117,0.0,0.0,79,0.00,SCT,,0.00,0.0,WeatherDisplay:10.37,2013-03-29 06:15:00,
2013-03-29 01:20:00,40.6,34.6,30.30,ESE,117,0.0,0.0,79,0.00,SCT,,0.00,0.0,WeatherDisplay:10.37,2013-03-29 06:20:00,
2013-03-29 01:25:00,40.4,34.4,30.30,ESE,117,0.0,0.0,79,0.00,SCT,,0.00,0.0,WeatherDisplay:10.37,2013-03-29 06:25:00,
2013-03-29 01:30:00,40.2,34.5,30.30,ESE,117,0.0,0.0,80,0.00,SCT,,0.00,0.0,WeatherDisplay:10.37,2013-03-29 06:30:00,
2013-03-29 01:35:00,40.1,34.4,30.30,ESE,117,0.0,0.0,80,0.00,SCT,,0.00,0.0,WeatherDisplay:10.37,2013-03-29 06:35:00,
2013-03-29 01:40:00,40.0,34.3,30.30,ESE,117,0.0,0.0,80,0.00,SCT,,0.00,0.0,WeatherDisplay:10.37,2013-03-29 06:40:00,
2013-03-29 01:45:00,39.9,34.2,30.30,ESE,117,0.0,0.0,80,0.00,SCT,,0.00,0.0,WeatherDisplay:10.37,2013-03-29 06:45:00,
2013-03-29 01:50:00,39.7,34.0,30.30,ESE,117,0.0,0.0,80,0.00,SCT,,0.00,0.0,WeatherDisplay:10.37,2013-03-29 06:50:00,
2013-03-29 01:55:00,39.6,33.9,30.30,ESE,117,0.0,0.0,80,0.00,SCT,,0.00,0.0,WeatherDisplay:10.37,2013-03-29 06:55:00,
2013-03-29 02:00:00,39.5,34.2,30.30,ESE,117,0.0,0.0,81,0.00,SCT,,0.00,0.0,WeatherDisplay:10.37,2013-03-29 07:00:00,
2013-03-29 02:05:00,39.4,34.1,30.30,ESE,117,0.0,0.0,81,0.00,SCT,,0.00,0.0,WeatherDisplay:10.37,2013-03-29 07:05:00,
2013-03-29 02:10:00,39.3,34.0,30.30,ESE,117,0.0,0.0,81,0.00,SCT,,0.00,0.0,WeatherDisplay:10.37,2013-03-29 07:10:00,
2013-03-29 02:15:00,39.1,33.8,30.30,ESE,117,0.0,0.0,81,0.00,SCT,,0.00,0.0,WeatherDisplay:10.37,2013-03-29 07:15:00,
2013-03-29 02:20:00,38.9,33.9,30.30,ESE,117,0.0,0.0,82,0.00,SCT,,0.00,0.0,WeatherDisplay:10.37,2013-03-29 07:20:00,
2013-03-29 02:25:00,38.8,33.5,30.30,ESE,117,0.0,0.0,81,0.00,SCT,,0.00,0.0,WeatherDisplay:10.37,2013-03-29 07:25:00,
2013-03-29 02:30:00,38.6,33.3,30.30,ESE,117,0.0,0.0,81,0.00,SCT,,0.00,0.0,WeatherDisplay:10.37,2013-03-29 07:30:00,
2013-03-29 02:35:00,38.5,33.2,30.30,ESE,117,0.0,0.0,81,0.00,SCT,,0.00,0.0,WeatherDisplay:10.37,2013-03-29 07:35:00,
2013-03-29 02:40:00,38.3,33.3,30.29,ESE,117,0.0,0.0,82,0.00,SCT,,0.00,0.0,WeatherDisplay:10.37,2013-03-29 07:40:00,
2013-03-29 02:45:00,38.2,33.2,30.29,ESE,117,0.0,0.0,82,0.00,SCT,,0.00,0.0,WeatherDisplay:10.37,2013-03-29 07:45:00,
2013-03-29 02:50:00,38.0,33.0,30.29,ESE,117,0.0,0.0,82,0.00,SCT,,0.00,0.0,WeatherDisplay:10.37,2013-03-29 07:50:00,
2013-03-29 02:55:00,37.9,32.9,30.29,ESE,117,0.0,0.0,82,0.00,SCT,,0.00,0.0,WeatherDisplay:10.37,2013-03-29 07:55:00,
2013-03-29 03:00:00,37.7,32.7,30.29,ESE,117,0.0,0.0,82,0.00,SCT,,0.00,0.0,WeatherDisplay:10.37,2013-03-29 08:00:00,
2013-03-29 03:05:00,37.6,32.6,30.29,ESE,117,0.0,0.0,82,0.00,SCT,,0.00,0.0,WeatherDisplay:10.37,2013-03-29 08:05:00,
2013-03-29 03:10:00,37.4,32.4,30.29,ESE,117,0.0,0.0,82,0.00,SCT,,0.00,0.0,WeatherDisplay:10.37,2013-03-29 08:10:00,
2013-03-29 03:15:00,37.2,32.2,30.29,ESE,117,0.0,0.0,82,0.00,SCT,,0.00,0.0,WeatherDisplay:10.37,2013-03-29 08:15:00,
2013-03-29 03:20:00,37.1,32.1,30.29,ESE,117,0.0,0.0,82,0.00,SCT,,0.00,0.0,WeatherDisplay:10.37,2013-03-29 08:20:00,
2013-03-29 03:26:00,36.8,32.1,30.28,ESE,117,0.0,0.0,83,0.00,SCT,,0.00,0.0,WeatherDisplay:10.37,2013-03-29 08:26:00,
2013-03-29 03:31:00,36.6,31.9,30.28,ESE,117,0.0,0.0,83,0.00,SCT,,0.00,0.0,WeatherDisplay:10.37,2013-03-29 08:31:00,
2013-03-29 03:36:00,36.4,31.7,30.28,ESE,117,0.0,0.0,83,0.00,SCT,,0.00,0.0,WeatherDisplay:10.37,2013-03-29 08:36:00,
2013-03-29 03:41:00,36.2,31.5,30.29,ESE,117,0.0,0.0,83,0.00,SCT,,0.00,0.0,WeatherDisplay:10.37,2013-03-29 08:41:00,
2013-03-29 03:46:00,36.0,31.3,30.29,ESE,117,0.0,0.0,83,0.00,SCT,,0.00,0.0,WeatherDisplay:10.37,2013-03-29 08:46:00,
2013-03-29 03:51:00,35.9,31.5,30.29,ESE,117,0.0,0.0,84,0.00,SCT,,0.00,0.0,WeatherDisplay:10.37,2013-03-29 08:51:00,
2013-03-29 03:56:00,35.7,31.3,30.29,ESE,117,0.0,0.0,84,0.00,SCT,,0.00,0.0,WeatherDisplay:10.37,2013-03-29 08:56:00,
2013-03-29 04:01:00,35.5,31.1,30.29,ESE,117,0.0,0.0,84,0.00,SCT,,0.00,0.0,WeatherDisplay:10.37,2013-03-29 09:01:00,
2013-03-29 04:06:00,35.3,30.9,30.28,ESE,117,0.0,0.0,84,0.00,SCT,,0.00,0.0,WeatherDisplay:10.37,2013-03-29 09:06:00,
2013-03-29 04:11:00,35.2,30.9,30.28,ESE,117,0.0,0.0,84,0.00,SCT,,0.00,0.0,WeatherDisplay:10.37,2013-03-29 09:11:00,
2013-03-29 04:16:00,34.9,30.8,30.28,ESE,117,0.0,0.0,85,0.00,SCT,,0.00,0.0,WeatherDisplay:10.37,2013-03-29 09:16:00,
2013-03-29 04:21:00,34.7,30.7,30.28,ESE,117,0.0,0.0,85,0.00,SCT,,0.00,0.0,WeatherDisplay:10.37,2013-03-29 09:21:00,
2013-03-29 04:26:00,34.4,30.4,30.28,ESE,117,0.0,0.0,85,0.00,SCT,,0.00,0.0,WeatherDisplay:10.37,2013-03-29 09:26:00,
2013-03-29 04:31:00,34.4,30.4,30.28,ESE,117,0.0,0.0,85,0.00,SCT,,0.00,0.0,WeatherDisplay:10.37,2013-03-29 09:31:00,
2013-03-29 04:36:00,34.2,30.2,30.28,ESE,117,0.0,0.0,85,0.00,SCT,,0.00,0.0,WeatherDisplay:10.37,2013-03-29 09:36:00,
2013-03-29 04:41:00,34.0,30.0,30.28,ESE,117,0.0,0.0,85,0.00,SCT,,0.00,0.0,WeatherDisplay:10.37,2013-03-29 09:41:00,
2013-03-29 04:46:00,33.9,30.2,30.28,ESE,117,0.0,0.0,86,0.00,SCT,,0.00,0.0,WeatherDisplay:10.37,2013-03-29 09:46:00,
2013-03-29 04:51:00,33.8,30.1,30.28,ESE,117,0.0,0.0,86,0.00,SCT,,0.00,0.0,WeatherDisplay:10.37,2013-03-29 09:51:00,
2013-03-29 04:57:00,33.6,29.9,30.28,ESE,117,0.0,0.0,86,0.00,SCT,,0.00,0.0,WeatherDisplay:10.37,2013-03-29 09:57:00,
2013-03-29 05:02:00,33.4,29.9,30.28,ESE,117,0.0,0.0,87,0.00,SCT,,0.00,0.0,WeatherDisplay:10.37,2013-03-29 10:02:00,
2013-03-29 05:07:00,33.3,29.8,30.28,ESE,117,0.0,0.0,87,0.00,SCT,,0.00,0.0,WeatherDisplay:10.37,2013-03-29 10:07:00,
2013-03-29 05:12:00,33.1,29.4,30.28,ESE,117,0.0,0.0,86,0.00,SCT,,0.00,0.0,WeatherDisplay:10.37,2013-03-29 10:12:00,
2013-03-29 05:17:00,32.9,29.5,30.28,ESE,117,0.0,0.0,87,0.00,SCT,,0.00,0.0,WeatherDisplay:10.37,2013-03-29 10:17:00,
2013-03-29 05:22:00,32.8,29.4,30.29,ESE,117,0.0,0.0,87,0.00,SCT,,0.00,0.0,WeatherDisplay:10.37,2013-03-29 10:22:00,
2013-03-29 05:27:00,32.6,29.2,30.29,ESE,117,0.0,0.0,87,0.00,SCT,,0.00,0.0,WeatherDisplay:10.37,2013-03-29 10:27:00,
2013-03-29 05:32:00,32.5,29.1,30.29,ESE,117,0.0,0.0,87,0.00,SCT,,0.00,0.0,WeatherDisplay:10.37,2013-03-29 10:32:00,
2013-03-29 05:37:00,32.3,28.9,30.29,ESE,117,0.0,0.0,87,0.00,SCT,,0.00,0.0,WeatherDisplay:10.37,2013-03-29 10:37:00,
2013-03-29 05:42:00,32.2,28.8,30.30,ESE,117,0.0,0.0,87,0.00,SCT,,0.00,0.0,WeatherDisplay:10.37,2013-03-29 10:42:00,
2013-03-29 05:47:00,32.1,28.7,30.30,ESE,117,0.0,0.0,87,0.00,SCT,,0.00,0.0,WeatherDisplay:10.37,2013-03-29 10:47:00,
2013-03-29 05:52:00,31.9,28.5,30.30,ESE,117,0.0,0.0,87,0.00,SCT,,0.00,0.0,WeatherDisplay:10.37,2013-03-29 10:52:00,
2013-03-29 05:57:00,31.8,28.4,30.29,ESE,117,0.0,0.0,87,0.00,SCT,,0.00,0.0,WeatherDisplay:10.37,2013-03-29 10:57:00,
2013-03-29 06:03:00,31.8,28.4,30.30,ESE,117,0.0,0.0,87,0.00,SCT,,0.00,0.0,WeatherDisplay:10.37,2013-03-29 11:03:00,
2013-03-29 06:08:00,31.7,28.6,30.30,ESE,117,0.0,0.0,88,0.00,SCT,,0.00,0.0,WeatherDisplay:10.37,2013-03-29 11:08:00,
2013-03-29 06:13:00,31.6,28.5,30.30,ESE,117,0.0,0.0,88,0.00,SCT,,0.00,0.0,WeatherDisplay:10.37,2013-03-29 11:13:00,
2013-03-29 06:18:00,31.5,28.4,30.30,ESE,117,0.0,0.0,88,0.00,SCT,,0.00,0.0,WeatherDisplay:10.37,2013-03-29 11:18:00,
2013-03-29 06:23:00,31.4,28.3,30.30,ESE,117,0.0,0.0,88,0.00,SCT,,0.00,0.0,WeatherDisplay:10.37,2013-03-29 11:23:00,
2013-03-29 06:28:00,31.3,28.2,30.30,ESE,117,0.0,0.0,88,0.00,SCT,,0.00,0.0,WeatherDisplay:10.37,2013-03-29 11:28:00,
2013-03-29 06:33:00,31.2,28.1,30.30,ESE,117,0.0,0.0,88,0.00,SCT,,0.00,0.0,WeatherDisplay:10.37,2013-03-29 11:33:00,
2013-03-29 06:38:00,31.1,28.0,30.30,ESE,117,0.0,0.0,88,0.00,SCT,,0.00,0.0,WeatherDisplay:10.37,2013-03-29 11:38:00,
2013-03-29 06:43:00,31.0,28.1,30.30,ESE,117,0.0,0.0,89,0.00,SCT,,0.00,0.0,WeatherDisplay:10.37,2013-03-29 11:43:00,
2013-03-29 06:48:00,30.9,28.0,30.30,ESE,117,0.0,0.0,89,0.00,OVC,,0.00,0.0,WeatherDisplay:10.37,2013-03-29 11:48:00,
2013-03-29 06:53:00,30.8,27.9,30.30,ESE,117,0.0,0.0,89,0.00,CLR,,0.00,5.0,WeatherDisplay:10.37,2013-03-29 11:53:00,
2013-03-29 06:58:00,30.6,27.7,30.30,ESE,117,0.0,0.0,89,0.00,BKN,,0.00,9.0,WeatherDisplay:10.37,2013-03-29 11:58:00,
2013-03-29 07:03:00,30.6,27.7,30.31,ESE,117,0.0,0.0,89,0.00,BKN,,0.00,12.0,WeatherDisplay:10.37,2013-03-29 12:03:00,
2013-03-29 07:08:00,30.5,27.6,30.31,ESE,117,0.0,0.0,89,0.00,BKN,,0.00,18.0,WeatherDisplay:10.37,2013-03-29 12:08:00,
2013-03-29 07:13:00,30.4,27.5,30.31,ESE,117,0.0,0.0,89,0.00,BKN,,0.00,23.0,WeatherDisplay:10.37,2013-03-29 12:13:00,
2013-03-29 07:18:00,30.3,27.4,30.31,ESE,117,0.0,0.0,89,0.00,BKN,,0.00,26.0,WeatherDisplay:10.37,2013-03-29 12:18:00,
2013-03-29 07:23:00,30.3,27.4,30.32,ESE,117,0.0,0.0,89,0.00,BKN,,0.00,35.0,WeatherDisplay:10.37,2013-03-29 12:23:00,
2013-03-29 07:28:00,30.4,27.8,30.32,ESE,117,0.0,0.0,90,0.00,BKN,,0.00,60.0,WeatherDisplay:10.37,2013-03-29 12:28:00,
2013-03-29 07:33:00,30.6,28.0,30.31,ESE,117,0.0,0.0,90,0.00,SCT,,0.00,95.0,WeatherDisplay:10.37,2013-03-29 12:33:00,
2013-03-29 07:38:00,30.7,28.1,30.31,ESE,117,0.0,0.0,90,0.00,SCT,,0.00,113.0,WeatherDisplay:10.37,2013-03-29 12:38:00,
2013-03-29 07:43:00,30.9,28.6,30.31,ESE,117,0.0,0.0,91,0.00,SCT,,0.00,130.0,WeatherDisplay:10.37,2013-03-29 12:43:00,
2013-03-29 07:48:00,31.1,28.8,30.31,ESE,117,0.0,0.0,91,0.00,SCT,,0.00,148.0,WeatherDisplay:10.37,2013-03-29 12:48:00,
2013-03-29 07:53:00,31.6,29.5,30.32,ESE,117,0.0,0.0,92,0.00,SCT,,0.00,151.0,WeatherDisplay:10.37,2013-03-29 12:53:00,
2013-03-29 07:58:00,32.4,30.3,30.32,ESE,117,0.0,0.0,92,0.00,SCT,,0.00,149.0,WeatherDisplay:10.37,2013-03-29 12:58:00,
2013-03-29 08:03:00,32.9,30.8,30.32,ESE,117,0.0,0.0,92,0.00,SCT,,0.00,165.0,WeatherDisplay:10.37,2013-03-29 13:03:00,
2013-03-29 08:08:00,33.3,31.2,30.32,ESE,117,0.0,0.0,92,0.00,SCT,,0.00,169.0,WeatherDisplay:10.37,2013-03-29 13:08:00,
2013-03-29 08:13:00,33.6,31.5,30.33,ESE,117,0.0,0.0,92,0.00,SCT,,0.00,160.0,WeatherDisplay:10.37,2013-03-29 13:13:00,
2013-03-29 08:18:00,34.2,32.4,30.32,ESE,117,0.0,0.0,93,0.00,SCT,,0.00,200.0,WeatherDisplay:10.37,2013-03-29 13:18:00,
2013-03-29 08:23:00,34.7,32.9,30.32,ESE,117,0.0,0.0,93,0.00,BKN,,0.00,178.0,WeatherDisplay:10.37,2013-03-29 13:23:00,
2013-03-29 08:28:00,35.3,33.5,30.32,ESE,117,0.0,0.0,93,0.00,BKN,,0.00,148.0,WeatherDisplay:10.37,2013-03-29 13:28:00,
2013-03-29 08:33:00,36.0,34.2,30.32,ESE,117,0.0,0.0,93,0.00,BKN,,0.00,232.0,WeatherDisplay:10.37,2013-03-29 13:33:00,
2013-03-29 08:38:00,36.5,34.7,30.32,ESE,117,0.0,0.0,93,0.00,BKN,,0.00,236.0,WeatherDisplay:10.37,2013-03-29 13:38:00,
2013-03-29 08:43:00,37.0,35.2,30.32,ESE,117,0.0,0.0,93,0.00,BKN,,0.00,200.0,WeatherDisplay:10.37,2013-03-29 13:43:00,
2013-03-29 08:48:00,37.5,35.7,30.32,ESE,117,0.0,0.0,93,0.00,BKN,,0.00,234.0,WeatherDisplay:10.37,2013-03-29 13:48:00,
2013-03-29 08:53:00,38.1,36.0,30.32,ESE,117,0.0,0.0,92,0.00,BKN,,0.00,243.0,WeatherDisplay:10.37,2013-03-29 13:53:00,
2013-03-29 08:58:00,38.6,36.5,30.32,ESE,117,0.0,0.0,92,0.00,BKN,,0.00,251.0,WeatherDisplay:10.37,2013-03-29 13:58:00,
2013-03-29 09:03:00,39.2,36.8,30.32,ESE,117,3.5,0.0,91,0.00,BKN,,0.00,316.0,WeatherDisplay:10.37,2013-03-29 14:03:00,
2013-03-29 09:08:00,39.9,37.2,30.32,ESE,117,2.3,0.0,90,0.00,SCT,,0.00,295.0,WeatherDisplay:10.37,2013-03-29 14:08:00,
2013-03-29 09:13:00,40.4,37.1,30.32,ESE,117,1.2,1.2,88,0.00,BKN,,0.00,118.0,WeatherDisplay:10.37,2013-03-29 14:13:00,
2013-03-29 09:18:00,41.0,37.4,30.32,ESE,117,3.5,3.5,87,0.00,BKN,,0.00,181.0,WeatherDisplay:10.37,2013-03-29 14:18:00,
2013-03-29 09:23:00,41.5,37.3,30.32,ESE,117,0.0,0.0,85,0.00,BKN,,0.00,292.0,WeatherDisplay:10.37,2013-03-29 14:23:00,
2013-03-29 09:28:00,42.2,37.4,30.32,ESE,103,3.5,3.5,83,0.00,BKN,,0.00,323.0,WeatherDisplay:10.37,2013-03-29 14:28:00,
2013-03-29 09:33:00,42.9,37.2,30.32,ESE,103,3.5,3.5,80,0.00,SCT,,0.00,452.0,WeatherDisplay:10.37,2013-03-29 14:33:00,
2013-03-29 09:38:00,43.5,37.1,30.31,East,101,2.3,0.0,78,0.00,SCT,,0.00,316.0,WeatherDisplay:10.37,2013-03-29 14:38:00,
2013-03-29 09:43:00,44.2,37.1,30.32,East,101,0.0,0.0,76,0.00,SCT,,0.00,271.0,WeatherDisplay:10.37,2013-03-29 14:43:00,
2013-03-29 09:48:00,44.7,36.9,30.32,East,95,3.5,3.5,74,0.00,BKN,,0.00,264.0,WeatherDisplay:10.37,2013-03-29 14:48:00,
2013-03-29 09:53:00,45.1,36.3,30.31,East,90,4.6,4.6,71,0.00,BKN,,0.00,338.0,WeatherDisplay:10.37,2013-03-29 14:53:00,
2013-03-29 09:58:00,45.5,35.9,30.31,East,83,3.5,0.0,69,0.00,SCT,,0.00,432.0,WeatherDisplay:10.37,2013-03-29 14:58:00,
2013-03-29 10:03:00,46.0,36.0,30.31,East,80,3.5,0.0,68,0.00,SCT,,0.00,253.0,WeatherDisplay:10.37,2013-03-29 15:03:00,
2013-03-29 10:08:00,46.4,36.0,30.31,East,80,3.5,3.5,67,0.00,BKN,,0.00,295.0,WeatherDisplay:10.37,2013-03-29 15:08:00,
2013-03-29 10:13:00,47.0,35.8,30.32,East,83,3.5,3.5,65,0.00,BKN,,0.00,343.0,WeatherDisplay:10.37,2013-03-29 15:13:00,
2013-03-29 10:18:00,47.6,36.0,30.31,East,82,4.6,4.6,64,0.00,BKN,,0.00,397.0,WeatherDisplay:10.37,2013-03-29 15:18:00,
2013-03-29 10:23:00,48.0,36.0,30.31,East,80,4.0,4.0,63,0.00,SCT,,0.00,432.0,WeatherDisplay:10.37,2013-03-29 15:23:00,
2013-03-29 10:28:00,48.3,35.9,30.31,ENE,67,6.9,6.9,62,0.00,SCT,,0.00,584.0,WeatherDisplay:10.37,2013-03-29 15:28:00,
2013-03-29 10:33:00,48.8,36.4,30.32,ENE,65,5.8,5.8,62,0.00,SCT,,0.00,670.0,WeatherDisplay:10.37,2013-03-29 15:33:00,
2013-03-29 10:38:00,49.2,36.3,30.32,ENE,66,4.6,4.6,61,0.00,FEW,,0.00,682.0,WeatherDisplay:10.37,2013-03-29 15:38:00,
2013-03-29 10:43:00,49.7,36.8,30.31,ENE,65,4.6,4.6,61,0.00,CLR,,0.00,694.0,WeatherDisplay:10.37,2013-03-29 15:43:00,
2013-03-29 10:48:00,50.3,36.9,30.32,ENE,78,3.5,3.5,60,0.00,CLR,,0.00,707.0,WeatherDisplay:10.37,2013-03-29 15:48:00,
2013-03-29 10:53:00,50.8,37.4,30.31,East,82,3.5,3.5,60,0.00,CLR,,0.00,721.0,WeatherDisplay:10.37,2013-03-29 15:53:00,
2013-03-29 10:58:00,51.4,37.5,30.31,East,90,0.0,0.0,59,0.00,CLR,,0.00,733.0,WeatherDisplay:10.37,2013-03-29 15:58:00,
2013-03-29 11:04:00,51.8,37.5,30.31,East,82,5.8,5.8,58,0.00,CLR,,0.00,738.0,WeatherDisplay:10.37,2013-03-29 16:04:00,
2013-03-29 11:09:00,52.2,38.3,30.31,East,80,3.5,3.5,59,0.00,CLR,,0.00,751.0,WeatherDisplay:10.37,2013-03-29 16:09:00,
2013-03-29 11:14:00,52.3,37.5,30.31,ENE,74,5.8,5.8,57,0.00,CLR,,0.00,759.0,WeatherDisplay:10.37,2013-03-29 16:14:00,
2013-03-29 11:19:00,52.4,37.6,30.31,ENE,64,5.8,5.8,57,0.00,CLR,,0.00,768.0,WeatherDisplay:10.37,2013-03-29 16:19:00,
2013-03-29 11:24:00,52.6,37.8,30.31,NE,55,10.4,10.4,57,0.00,CLR,,0.00,779.0,WeatherDisplay:10.37,2013-03-29 16:24:00,
2013-03-29 11:29:00,52.7,38.3,30.31,NE,42,4.6,4.6,58,0.00,CLR,,0.00,780.0,WeatherDisplay:10.37,2013-03-29 16:29:00,
2013-03-29 11:34:00,53.2,37.4,30.31,ENE,61,5.8,5.8,55,0.00,CLR,,0.00,791.0,WeatherDisplay:10.37,2013-03-29 16:34:00,
2013-03-29 11:39:00,53.5,37.7,30.30,East,88,3.5,3.5,55,0.00,CLR,,0.00,798.0,WeatherDisplay:10.37,2013-03-29 16:39:00,
2013-03-29 11:44:00,53.8,37.5,30.30,East,82,4.6,4.6,54,0.00,CLR,,0.00,817.0,WeatherDisplay:10.37,2013-03-29 16:44:00,
2013-03-29 11:49:00,54.1,37.8,30.30,East,82,2.3,2.3,54,0.00,CLR,,0.00,819.0,WeatherDisplay:10.37,2013-03-29 16:49:00,
2013-03-29 11:54:00,54.4,37.1,30.30,NE,50,5.8,5.8,52,0.00,CLR,,0.00,824.0,WeatherDisplay:10.37,2013-03-29 16:54:00,
2013-03-29 11:59:00,54.6,37.3,30.30,NE,50,0.0,0.0,52,0.00,CLR,,0.00,830.0,WeatherDisplay:10.37,2013-03-29 16:59:00,
2013-03-29 12:04:00,54.8,37.0,30.30,ENE,78,4.6,4.6,51,0.00,CLR,,0.00,838.0,WeatherDisplay:10.37,2013-03-29 17:04:00,
2013-03-29 12:09:00,55.2,36.9,30.29,East,88,0.0,1.6,50,0.00,CLR,,0.00,853.0,WeatherDisplay:10.37,2013-03-29 17:09:00,
2013-03-29 12:14:00,55.5,37.1,30.29,East,87,2.3,2.3,50,0.00,CLR,,0.00,860.0,WeatherDisplay:10.37,2013-03-29 17:14:00,
2013-03-29 12:19:00,55.7,36.3,30.29,East,80,5.8,5.8,48,0.00,CLR,,0.00,856.0,WeatherDisplay:10.37,2013-03-29 17:19:00,
2013-03-29 12:24:00,55.7,37.3,30.29,East,81,3.5,3.5,50,0.00,CLR,,0.00,868.0,WeatherDisplay:10.37,2013-03-29 17:24:00,
2013-03-29 12:29:00,56.0,37.1,30.29,East,81,3.5,3.5,49,0.00,CLR,,0.00,872.0,WeatherDisplay:10.37,2013-03-29 17:29:00,
2013-03-29 12:34:00,56.1,37.7,30.28,SSE,152,5.8,5.8,50,0.00,CLR,,0.00,872.0,WeatherDisplay:10.37,2013-03-29 17:34:00,
2013-03-29 12:39:00,55.9,37.0,30.28,SE,131,0.0,0.0,49,0.00,CLR,,0.00,874.0,WeatherDisplay:10.37,2013-03-29 17:39:00,
2013-03-29 12:44:00,56.0,37.1,30.28,SSE,157,0.0,0.0,49,0.00,CLR,,0.00,874.0,WeatherDisplay:10.37,2013-03-29 17:44:00,
2013-03-29 12:49:00,56.4,38.0,30.28,ESE,107,4.6,4.6,50,0.00,CLR,,0.00,868.0,WeatherDisplay:10.37,2013-03-29 17:49:00,
2013-03-29 12:54:00,56.7,37.2,30.28,East,85,4.6,4.6,48,0.00,CLR,,0.00,875.0,WeatherDisplay:10.37,2013-03-29 17:54:00,
2013-03-29 12:59:00,57.2,37.7,30.28,East,85,0.0,0.0,48,0.00,CLR,,0.00,888.0,WeatherDisplay:10.37,2013-03-29 17:59:00,
2013-03-29 13:04:00,57.3,37.2,30.28,ENE,60,6.9,6.9,47,0.00,CLR,,0.00,891.0,WeatherDisplay:10.37,2013-03-29 18:04:00,
2013-03-29 13:09:00,57.1,38.1,30.28,ESE,105,3.5,3.5,49,0.00,CLR,,0.00,889.0,WeatherDisplay:10.37,2013-03-29 18:09:00,
2013-03-29 13:14:00,57.4,37.9,30.28,ENE,59,5.8,5.8,48,0.00,CLR,,0.00,911.0,WeatherDisplay:10.37,2013-03-29 18:14:00,
2013-03-29 13:19:00,57.7,38.7,30.27,ENE,59,3.5,3.5,49,0.00,CLR,,0.00,919.0,WeatherDisplay:10.37,2013-03-29 18:19:00,
2013-03-29 13:24:00,58.1,38.5,30.27,ENE,71,10.4,10.4,48,0.00,CLR,,0.00,904.0,WeatherDisplay:10.37,2013-03-29 18:24:00,
2013-03-29 13:29:00,57.7,38.1,30.27,NE,38,3.5,0.0,48,0.00,CLR,,0.00,921.0,WeatherDisplay:10.37,2013-03-29 18:29:00,
2013-03-29 13:35:00,57.9,37.8,30.27,NE,39,4.0,4.0,47,0.00,CLR,,0.00,907.0,WeatherDisplay:10.37,2013-03-29 18:35:00,
2013-03-29 13:40:00,57.8,37.7,30.27,NE,46,6.0,6.0,47,0.00,CLR,,0.00,882.0,WeatherDisplay:10.37,2013-03-29 18:40:00,
2013-03-29 13:45:00,58.0,37.9,30.27,NE,48,5.8,6.3,47,0.00,CLR,,0.00,898.0,WeatherDisplay:10.37,2013-03-29 18:45:00,
2013-03-29 13:50:00,57.7,37.0,30.26,NE,48,3.5,3.5,46,0.00,CLR,,0.00,819.0,WeatherDisplay:10.37,2013-03-29 18:50:00,
2013-03-29 13:55:00,57.6,37.0,30.26,NE,48,4.6,0.0,46,0.00,CLR,,0.00,828.0,WeatherDisplay:10.37,2013-03-29 18:55:00,
2013-03-29 14:00:00,57.9,37.8,30.26,NE,48,1.2,0.0,47,0.00,FEW,,0.00,879.0,WeatherDisplay:10.37,2013-03-29 19:00:00,
2013-03-29 14:05:00,58.7,38.5,30.26,East,80,4.6,4.6,47,0.00,FEW,,0.00,874.0,WeatherDisplay:10.37,2013-03-29 19:05:00,
2013-03-29 14:10:00,59.0,38.2,30.26,East,81,4.6,4.6,46,0.00,CLR,,0.00,868.0,WeatherDisplay:10.37,2013-03-29 19:10:00,
2013-03-29 14:15:00,59.4,37.5,30.26,ESE,121,1.2,1.2,44,0.00,CLR,,0.00,847.0,WeatherDisplay:10.37,2013-03-29 19:15:00,
2013-03-29 14:20:00,59.9,37.9,30.25,ESE,117,0.0,0.0,44,0.00,CLR,,0.00,854.0,WeatherDisplay:10.37,2013-03-29 19:20:00,
2013-03-29 14:25:00,60.4,37.8,30.25,ESE,102,5.8,5.8,43,0.00,CLR,,0.00,858.0,WeatherDisplay:10.37,2013-03-29 19:25:00,
2013-03-29 14:30:00,60.8,37.5,30.25,ENE,69,4.6,4.6,42,0.00,CLR,,0.00,285.0,WeatherDisplay:10.37,2013-03-29 19:30:00,
2013-03-29 14:35:00,60.8,37.5,30.25,ENE,68,1.2,0.0,42,0.00,FEW,,0.00,819.0,WeatherDisplay:10.37,2013-03-29 19:35:00,
2013-03-29 14:40:00,60.6,37.4,30.25,ENE,71,0.0,0.0,42,0.00,FEW,,0.00,826.0,WeatherDisplay:10.37,2013-03-29 19:40:00,
2013-03-29 14:45:00,61.2,37.9,30.24,NE,36,6.9,6.9,42,0.00,CLR,,0.00,810.0,WeatherDisplay:10.37,2013-03-29 19:45:00,
2013-03-29 14:50:00,60.2,35.8,30.24,NNE,17,3.5,3.5,40,0.00,CLR,,0.00,793.0,WeatherDisplay:10.37,2013-03-29 19:50:00,
2013-03-29 14:55:00,60.1,37.5,30.24,ENE,74,5.8,5.8,43,0.00,CLR,,0.00,772.0,WeatherDisplay:10.37,2013-03-29 19:55:00,
2013-03-29 15:00:00,60.5,37.3,30.24,ENE,73,0.0,0.0,42,0.00,CLR,,0.00,745.0,WeatherDisplay:10.37,2013-03-29 20:00:00,
2013-03-29 15:05:00,61.5,37.6,30.24,ESE,118,2.3,2.3,41,0.00,CLR,,0.00,737.0,WeatherDisplay:10.37,2013-03-29 20:05:00,
2013-03-29 15:10:00,61.9,36.7,30.23,ESE,118,0.0,0.0,39,0.00,CLR,,0.00,726.0,WeatherDisplay:10.37,2013-03-29 20:10:00,
2013-03-29 15:15:00,61.5,36.9,30.23,ESE,119,2.3,2.3,40,0.00,CLR,,0.00,717.0,WeatherDisplay:10.37,2013-03-29 20:15:00,
2013-03-29 15:20:00,61.1,37.8,30.23,East,79,5.0,5.0,42,0.00,CLR,,0.00,689.0,WeatherDisplay:10.37,2013-03-29 20:20:00,
2013-03-29 15:25:00,61.3,37.4,30.23,ENE,74,6.9,6.9,41,0.00,CLR,,0.00,684.0,WeatherDisplay:10.37,2013-03-29 20:25:00,
2013-03-29 15:30:00,61.2,37.3,30.23,ENE,72,0.0,0.0,41,0.00,FEW,,0.00,670.0,WeatherDisplay:10.37,2013-03-29 20:30:00,
2013-03-29 15:35:00,61.2,36.7,30.23,NE,53,3.5,3.5,40,0.00,FEW,,0.00,647.0,WeatherDisplay:10.37,2013-03-29 20:35:00,
2013-03-29 15:40:00,60.7,35.6,30.23,NE,55,3.5,3.5,39,0.00,FEW,,0.00,645.0,WeatherDisplay:10.37,2013-03-29 20:40:00,
2013-03-29 15:45:00,60.1,35.0,30.23,ENE,75,0.0,0.0,39,0.00,FEW,,0.00,624.0,WeatherDisplay:10.37,2013-03-29 20:45:00,
2013-03-29 15:50:00,60.5,36.7,30.22,ENE,75,1.2,1.2,41,0.00,FEW,,0.00,608.0,WeatherDisplay:10.37,2013-03-29 20:50:00,
2013-03-29 15:55:00,60.7,36.2,30.22,ENE,76,4.6,4.6,40,0.00,FEW,,0.00,584.0,WeatherDisplay:10.37,2013-03-29 20:55:00,
2013-03-29 16:00:00,60.9,37.0,30.22,East,84,6.9,6.9,41,0.00,FEW,,0.00,573.0,WeatherDisplay:10.37,2013-03-29 21:00:00,
2013-03-29 16:05:00,61.0,36.5,30.22,East,81,1.2,0.0,40,0.00,FEW,,0.00,573.0,WeatherDisplay:10.37,2013-03-29 21:05:00,
2013-03-29 16:10:00,61.0,35.8,30.22,ENE,63,0.0,0.6,39,0.00,FEW,,0.00,561.0,WeatherDisplay:10.37,2013-03-29 21:10:00,
2013-03-29 16:15:00,61.5,36.3,30.22,NE,38,5.8,5.8,39,0.00,FEW,,0.00,536.0,WeatherDisplay:10.37,2013-03-29 21:15:00,
2013-03-29 16:20:00,61.4,35.5,30.22,NE,38,0.0,0.0,38,0.00,FEW,,0.00,527.0,WeatherDisplay:10.37,2013-03-29 21:20:00,
2013-03-29 16:25:00,61.7,35.8,30.22,NE,40,5.8,5.8,38,0.00,FEW,,0.00,513.0,WeatherDisplay:10.37,2013-03-29 21:25:00,
2013-03-29 16:30:00,61.0,35.2,30.22,NE,40,1.2,0.0,38,0.00,FEW,,0.00,492.0,WeatherDisplay:10.37,2013-03-29 21:30:00,
2013-03-29 16:35:00,61.3,35.5,30.22,NE,40,1.2,1.2,38,0.00,FEW,,0.00,478.0,WeatherDisplay:10.37,2013-03-29 21:35:00,
2013-03-29 16:40:00,61.3,34.8,30.21,NE,40,0.0,0.0,37,0.00,FEW,,0.00,466.0,WeatherDisplay:10.37,2013-03-29 21:40:00,
2013-03-29 16:45:00,61.8,36.6,30.21,NE,40,0.0,0.0,39,0.00,FEW,,0.00,448.0,WeatherDisplay:10.37,2013-03-29 21:45:00,
2013-03-29 16:50:00,61.9,35.3,30.21,ENE,57,5.8,5.8,37,0.00,FEW,,0.00,425.0,WeatherDisplay:10.37,2013-03-29 21:50:00,
2013-03-29 16:55:00,61.1,35.3,30.21,ENE,57,0.0,0.0,38,0.00,FEW,,0.00,410.0,WeatherDisplay:10.37,2013-03-29 21:55:00,
2013-03-29 17:00:00,61.0,35.8,30.21,ENE,57,0.0,0.0,39,0.00,FEW,,0.00,396.0,WeatherDisplay:10.37,2013-03-29 22:00:00,
2013-03-29 17:05:00,60.7,36.2,30.21,NE,51,9.2,9.2,40,0.00,FEW,,0.00,380.0,WeatherDisplay:10.37,2013-03-29 22:05:00,
2013-03-29 17:10:00,59.7,35.3,30.21,NNE,30,5.8,5.8,40,0.00,FEW,,0.00,366.0,WeatherDisplay:10.37,2013-03-29 22:10:00,
2013-03-29 17:15:00,59.4,36.3,30.21,NNE,30,2.3,2.3,42,0.00,SCT,,0.00,346.0,WeatherDisplay:10.37,2013-03-29 22:15:00,
2013-03-29 17:20:00,59.5,35.1,30.21,NNE,27,3.5,3.5,40,0.00,SCT,,0.00,329.0,WeatherDisplay:10.37,2013-03-29 22:20:00,
2013-03-29 17:25:00,59.7,35.9,30.21,NNE,27,1.2,1.2,41,0.00,SCT,,0.00,313.0,WeatherDisplay:10.37,2013-03-29 22:25:00,
2013-03-29 17:30:00,59.9,36.1,30.21,NNE,33,0.0,0.0,41,0.00,SCT,,0.00,299.0,WeatherDisplay:10.37,2013-03-29 22:30:00,
2013-03-29 17:35:00,60.3,35.2,30.21,NE,34,2.3,0.0,39,0.00,SCT,,0.00,281.0,WeatherDisplay:10.37,2013-03-29 22:35:00,
2013-03-29 17:40:00,60.6,35.5,30.21,NNE,33,0.0,0.0,39,0.00,SCT,,0.00,265.0,WeatherDisplay:10.37,2013-03-29 22:40:00,
2013-03-29 17:45:00,61.0,37.1,30.21,NE,34,0.0,0.9,41,0.00,SCT,,0.00,251.0,WeatherDisplay:10.37,2013-03-29 22:45:00,
2013-03-29 17:50:00,61.1,36.6,30.21,NNE,33,0.0,0.0,40,0.00,SCT,,0.00,236.0,WeatherDisplay:10.37,2013-03-29 22:50:00,
2013-03-29 17:55:00,61.0,35.8,30.21,NE,56,9.2,9.2,39,0.00,SCT,,0.00,221.0,WeatherDisplay:10.37,2013-03-29 22:55:00,
2013-03-29 18:00:00,60.4,35.9,30.21,East,86,3.5,3.5,40,0.00,SCT,,0.00,202.0,WeatherDisplay:10.37,2013-03-29 23:00:00,
2013-03-29 18:05:00,59.4,35.7,30.21,ENE,66,3.5,3.5,41,0.00,SCT,,0.00,185.0,WeatherDisplay:10.37,2013-03-29 23:05:00,
2013-03-29 18:10:00,59.5,37.0,30.21,ENE,66,0.0,0.0,43,0.00,SCT,,0.00,171.0,WeatherDisplay:10.37,2013-03-29 23:10:00,
2013-03-29 18:15:00,59.7,35.9,30.21,ENE,66,0.0,0.0,41,0.00,SCT,,0.00,155.0,WeatherDisplay:10.37,2013-03-29 23:15:00,
2013-03-29 18:20:00,59.7,36.6,30.21,ENE,66,4.6,4.6,42,0.00,SCT,,0.00,142.0,WeatherDisplay:10.37,2013-03-29 23:20:00,
2013-03-29 18:25:00,59.5,36.4,30.21,East,94,3.5,3.5,42,0.00,SCT,,0.00,125.0,WeatherDisplay:10.37,2013-03-29 23:25:00,
2013-03-29 18:30:00,59.0,35.9,30.21,East,94,3.5,3.5,42,0.00,SCT,,0.00,104.0,WeatherDisplay:10.37,2013-03-29 23:30:00,
2013-03-29 18:35:00,59.0,36.5,30.21,East,94,2.3,0.0,43,0.00,BKN,,0.00,86.0,WeatherDisplay:10.37,2013-03-29 23:35:00,
2013-03-29 18:40:00,59.0,36.5,30.21,East,94,0.0,0.0,43,0.00,BKN,,0.00,69.0,WeatherDisplay:10.37,2013-03-29 23:40:00,
2013-03-29 18:45:00,58.6,36.2,30.21,East,94,0.0,0.0,43,0.00,BKN,,0.00,46.0,WeatherDisplay:10.37,2013-03-29 23:45:00,
2013-03-29 18:50:00,58.4,36.0,30.21,East,94,3.5,3.5,43,0.00,BKN,,0.00,39.0,WeatherDisplay:10.37,2013-03-29 23:50:00,
2013-03-29 18:56:00,58.0,35.6,30.21,East,94,1.2,0.0,43,0.00,BKN,,0.00,28.0,WeatherDisplay:10.37,2013-03-29 23:56:00,
2013-03-29 19:01:00,57.7,35.9,30.21,East,94,0.0,0.1,44,0.00,BKN,,0.00,23.0,WeatherDisplay:10.37,2013-03-30 00:01:00,
2013-03-29 19:06:00,57.2,36.0,30.21,East,94,0.0,0.0,45,0.00,BKN,,0.00,18.0,WeatherDisplay:10.37,2013-03-30 00:06:00,
2013-03-29 19:11:00,56.9,35.8,30.21,East,94,0.0,0.0,45,0.00,BKN,,0.00,12.0,WeatherDisplay:10.37,2013-03-30 00:11:00,
2013-03-29 19:16:00,56.6,35.5,30.21,East,94,0.0,0.0,45,0.00,BKN,,0.00,9.0,WeatherDisplay:10.37,2013-03-30 00:16:00,
2013-03-29 19:21:00,56.2,35.1,30.21,East,94,0.0,0.0,45,0.00,BKN,,0.00,5.0,WeatherDisplay:10.37,2013-03-30 00:21:00,
2013-03-29 19:26:00,56.0,35.5,30.21,East,94,0.0,0.0,46,0.00,BKN,,0.00,0.0,WeatherDisplay:10.37,2013-03-30 00:26:00,
2013-03-29 19:31:00,55.8,35.3,30.21,East,94,0.0,0.0,46,0.00,BKN,,0.00,0.0,WeatherDisplay:10.37,2013-03-30 00:31:00,
2013-03-29 19:36:00,55.5,35.0,30.21,East,94,0.0,0.0,46,0.00,BKN,,0.00,0.0,WeatherDisplay:10.37,2013-03-30 00:36:00,
2013-03-29 19:41:00,55.2,35.3,30.21,East,94,0.0,0.0,47,0.00,BKN,,0.00,0.0,WeatherDisplay:10.37,2013-03-30 00:41:00,
2013-03-29 19:46:00,54.7,35.9,30.21,East,94,0.0,0.0,49,0.00,BKN,,0.00,0.0,WeatherDisplay:10.37,2013-03-30 00:46:00,
2013-03-29 19:51:00,54.0,36.3,30.21,East,94,0.0,0.0,51,0.00,BKN,,0.00,0.0,WeatherDisplay:10.37,2013-03-30 00:51:00,
2013-03-29 19:56:00,53.5,36.8,30.21,East,94,0.0,0.0,53,0.00,BKN,,0.00,0.0,WeatherDisplay:10.37,2013-03-30 00:56:00,
2013-03-29 20:01:00,53.0,36.8,30.21,East,94,0.0,0.0,54,0.00,BKN,,0.00,0.0,WeatherDisplay:10.37,2013-03-30 01:01:00,
2013-03-29 20:06:00,52.4,36.7,30.21,East,94,0.0,0.0,55,0.00,BKN,,0.00,0.0,WeatherDisplay:10.37,2013-03-30 01:06:00,
2013-03-29 20:11:00,51.9,36.2,30.21,East,94,0.0,0.0,55,0.00,BKN,,0.00,0.0,WeatherDisplay:10.37,2013-03-30 01:11:00,
2013-03-29 20:17:00,51.5,35.9,30.22,East,94,0.0,0.0,55,0.00,BKN,,0.00,0.0,WeatherDisplay:10.37,2013-03-30 01:17:00,
2013-03-29 20:22:00,51.0,36.7,30.21,East,94,0.0,0.0,58,0.00,BKN,,0.00,0.0,WeatherDisplay:10.37,2013-03-30 01:22:00,
2013-03-29 20:27:00,50.5,36.7,30.21,East,94,0.0,0.0,59,0.00,BKN,,0.00,0.0,WeatherDisplay:10.37,2013-03-30 01:27:00,
2013-03-29 20:32:00,49.9,37.0,30.21,East,94,0.0,0.0,61,0.00,BKN,,0.00,0.0,WeatherDisplay:10.37,2013-03-30 01:32:00,
2013-03-29 20:37:00,49.4,36.9,30.22,East,94,0.0,0.0,62,0.00,BKN,,0.00,0.0,WeatherDisplay:10.37,2013-03-30 01:37:00,
2013-03-29 20:42:00,48.8,36.4,30.22,East,94,0.0,0.0,62,0.00,BKN,,0.00,0.0,WeatherDisplay:10.37,2013-03-30 01:42:00,
2013-03-29 20:47:00,48.4,36.4,30.22,East,94,0.0,0.0,63,0.00,BKN,,0.00,0.0,WeatherDisplay:10.37,2013-03-30 01:47:00,
2013-03-29 20:52:00,47.9,36.3,30.22,East,94,0.0,0.0,64,0.00,BKN,,0.00,0.0,WeatherDisplay:10.37,2013-03-30 01:52:00,
2013-03-29 20:57:00,47.4,36.2,30.22,East,94,0.0,0.0,65,0.00,BKN,,0.00,0.0,WeatherDisplay:10.37,2013-03-30 01:57:00,
2013-03-29 21:02:00,47.0,36.2,30.22,East,94,0.0,0.0,66,0.00,BKN,,0.00,0.0,WeatherDisplay:10.37,2013-03-30 02:02:00,
2013-03-29 21:07:00,46.7,36.3,30.22,East,94,0.0,0.0,67,0.00,BKN,,0.00,0.0,WeatherDisplay:10.37,2013-03-30 02:07:00,
2013-03-29 21:12:00,46.3,35.9,30.22,East,94,0.0,0.0,67,0.00,BKN,,0.00,0.0,WeatherDisplay:10.37,2013-03-30 02:12:00,
2013-03-29 21:17:00,46.0,36.0,30.22,East,94,0.0,0.0,68,0.00,BKN,,0.00,0.0,WeatherDisplay:10.37,2013-03-30 02:17:00,
2013-03-29 21:22:00,45.7,36.1,30.22,East,94,0.0,0.0,69,0.00,BKN,,0.00,0.0,WeatherDisplay:10.37,2013-03-30 02:22:00,
2013-03-29 21:27:00,45.4,35.8,30.22,East,94,0.0,0.0,69,0.00,BKN,,0.00,0.0,WeatherDisplay:10.37,2013-03-30 02:27:00,
2013-03-29 21:32:00,45.2,36.0,30.22,East,94,0.0,0.0,70,0.00,BKN,,0.00,0.0,WeatherDisplay:10.37,2013-03-30 02:32:00,
2013-03-29 21:37:00,45.0,35.8,30.22,East,94,0.0,0.0,70,0.00,BKN,,0.00,0.0,WeatherDisplay:10.37,2013-03-30 02:37:00,
2013-03-29 21:42:00,44.7,35.9,30.22,East,94,0.0,0.0,71,0.00,BKN,,0.00,0.0,WeatherDisplay:10.37,2013-03-30 02:42:00,
2013-03-29 21:48:00,44.5,35.7,30.22,East,94,0.0,0.0,71,0.00,BKN,,0.00,0.0,WeatherDisplay:10.37,2013-03-30 02:48:00,
2013-03-29 21:53:00,44.3,35.5,30.23,East,94,0.0,0.0,71,0.00,BKN,,0.00,0.0,WeatherDisplay:10.37,2013-03-30 02:53:00,
2013-03-29 21:58:00,44.0,35.6,30.23,East,94,0.0,0.0,72,0.00,BKN,,0.00,0.0,WeatherDisplay:10.37,2013-03-30 02:58:00,
2013-03-29 22:03:00,43.7,35.6,30.22,East,94,0.0,0.0,73,0.00,BKN,,0.00,0.0,WeatherDisplay:10.37,2013-03-30 03:03:00,
2013-03-29 22:08:00,43.5,35.8,30.22,East,94,0.0,0.0,74,0.00,BKN,,0.00,0.0,WeatherDisplay:10.37,2013-03-30 03:08:00,
2013-03-29 22:13:00,43.3,35.6,30.22,East,94,0.0,0.0,74,0.00,BKN,,0.00,0.0,WeatherDisplay:10.37,2013-03-30 03:13:00,
2013-03-29 22:18:00,43.2,35.5,30.22,East,94,0.0,0.0,74,0.00,BKN,,0.00,0.0,WeatherDisplay:10.37,2013-03-30 03:18:00,
2013-03-29 22:23:00,43.0,35.3,30.23,East,94,0.0,0.0,74,0.00,BKN,,0.00,0.0,WeatherDisplay:10.37,2013-03-30 03:23:00,
2013-03-29 22:28:00,42.7,35.0,30.23,East,94,0.0,0.0,74,0.00,BKN,,0.00,0.0,WeatherDisplay:10.37,2013-03-30 03:28:00,
2013-03-29 22:33:00,42.5,35.1,30.23,East,94,0.0,0.0,75,0.00,BKN,,0.00,0.0,WeatherDisplay:10.37,2013-03-30 03:33:00,
2013-03-29 22:38:00,42.3,34.9,30.23,East,94,0.0,0.0,75,0.00,BKN,,0.00,0.0,WeatherDisplay:10.37,2013-03-30 03:38:00,
2013-03-29 22:43:00,42.1,35.1,30.22,East,94,0.0,0.0,76,0.00,BKN,,0.00,0.0,WeatherDisplay:10.37,2013-03-30 03:43:00,
2013-03-29 22:48:00,41.8,35.1,30.22,East,94,0.0,0.0,77,0.00,BKN,,0.00,0.0,WeatherDisplay:10.37,2013-03-30 03:48:00,
2013-03-29 22:53:00,41.5,34.8,30.23,East,94,0.0,0.0,77,0.00,BKN,,0.00,0.0,WeatherDisplay:10.37,2013-03-30 03:53:00,
2013-03-29 22:58:00,41.1,34.4,30.23,East,94,0.0,0.0,77,0.00,BKN,,0.00,0.0,WeatherDisplay:10.37,2013-03-30 03:58:00,
2013-03-29 23:00:00,41.1,34.8,30.22,East,94,0.0,0.0,78,0.00,BKN,,0.00,0.0,WeatherDisplay:10.37,2013-03-30 04:00:00,
2013-03-29 23:05:00,40.8,34.5,30.22,East,94,0.0,0.0,78,0.00,BKN,,0.00,0.0,WeatherDisplay:10.37,2013-03-30 04:05:00,
2013-03-29 23:10:00,40.4,34.4,30.22,East,94,0.0,0.0,79,0.00,BKN,,0.00,0.0,WeatherDisplay:10.37,2013-03-30 04:10:00,
2013-03-29 23:15:00,40.1,34.1,30.22,East,94,0.0,0.0,79,0.00,BKN,,0.00,0.0,WeatherDisplay:10.37,2013-03-30 04:15:00,
2013-03-29 23:20:00,39.8,33.8,30.22,East,94,0.0,0.0,79,0.00,BKN,,0.00,0.0,WeatherDisplay:10.37,2013-03-30 04:20:00,
2013-03-29 23:25:00,39.7,34.0,30.22,East,94,0.0,0.0,80,0.00,BKN,,0.00,0.0,WeatherDisplay:10.37,2013-03-30 04:25:00,
2013-03-29 23:30:00,39.5,33.8,30.22,East,94,0.0,0.0,80,0.00,BKN,,0.00,0.0,WeatherDisplay:10.37,2013-03-30 04:30:00,
2013-03-29 23:35:00,39.3,34.0,30.22,East,94,0.0,0.0,81,0.00,BKN,,0.00,0.0,WeatherDisplay:10.37,2013-03-30 04:35:00,
2013-03-29 23:40:00,39.1,33.8,30.22,East,94,0.0,0.0,81,0.00,BKN,,0.00,0.0,WeatherDisplay:10.37,2013-03-30 04:40:00,
2013-03-29 23:45:00,39.0,33.7,30.22,East,94,0.0,0.0,81,0.00,BKN,,0.00,0.0,WeatherDisplay:10.37,2013-03-30 04:45:00,
2013-03-29 23:50:00,38.8,33.5,30.22,East,94,0.0,0.0,81,0.00,BKN,,0.00,0.0,WeatherDisplay:10.37,2013-03-30 04:50:00,
2013-03-29 23:55:00,38.7,33.4,30.22,East,94,0.0,0.0,81,0.00,BKN,,0.00,0.0,WeatherDisplay:10.37,2013-03-30 04:55:00,